Regional Weather Roundup
Issued by NWS

Home | Current Version | Previous Version | Text Only | Print | Product List | Glossary Off
Versions: 1 2 3 4 5 6 7 8 9 10 11 12 13 14 15 16 17 18 19 20 21 22 23 24 25 26 27 28 29 30 31 32 33 34 35 36 37 38 39 40 41 42 43 44 45 46 47 48 49 50

000
ASUS43 KLSX 012159
RWRMO

WEATHER SUMMARY FOR MISSOURI
NATIONAL WEATHER SERVICE SPRINGFIELD MO
400 PM CST SUN MAR 01 2015

NOTE: "FAIR" INDICATES FEW OR NO CLOUDS BELOW 12,000 FEET WITH NO
       SIGNIFICANT WEATHER AND/OR OBSTRUCTIONS TO VISIBILITY.
       CURRENT SKY AND/OR WEATHER CONDITIONS ARE NOT AVAILABLE FOR
       CHILLICOTHE AND FARMINGTON.

MOZ001>031-035>038-043-044-053-054-012300-
...NORTHERN AND WESTERN MISSOURI...

CITY           SKY/WX    TMP DP  RH WIND       PRES   REMARKS
KANSAS CTY INT PTSUNNY   32  21  64 NW6       30.37S WCI  26
KANSAS C DTWN  PTSUNNY   34  21  59 W7        30.39S WCI  28
LEE`S SUMMIT   CLOUDY    32  21  64 W7        30.38S WCI  26
ST JOSEPH      PTSUNNY   32  21  64 NW6       30.39F WCI  26
CHILLICOTHE      N/A     32  20  61 NW6       30.40R WCI  26
KIRKSVILLE     PTSUNNY   29  20  69 NW7       30.36R WCI  22

$$
MOZ066>068-077>081-088>096-101>105-012300-
...SOUTHWEST MISSOURI...

CITY           SKY/WX    TMP DP  RH WIND       PRES   REMARKS
SPRINGFIELD    CLOUDY    31  25  78 NW12      30.33S WCI  22
JOPLIN         CLOUDY    31  24  75 N7        30.37S WCI  24

$$
MOZ032>034-039>042-045>050-055>058-069>072-012300-
...CENTRAL MISSOURI...

CITY           SKY/WX    TMP DP  RH WIND       PRES   REMARKS
COLUMBIA       PTSUNNY   30  22  72 W9        30.36S WCI  22
JEFFERSON CITY MOSUNNY   30  22  72 W8        30.38F WCI  22
ROLLA          CLOUDY    29  24  82 N10       30.33R WCI  20
SEDALIA        PTSUNNY   29  19  66 NW12      30.39S WCI  19
OSAGE BEACH    CLOUDY    30  23  74 NW5       30.36S WCI  25

$$
MOZ051-052-059>065-012300-
...EAST CENTRAL MISSOURI...

CITY           SKY/WX    TMP DP  RH WIND       PRES   REMARKS
ST LOUIS INTL  NOT AVBL
SPIRIT OF STL  CLOUDY    31  24  75 NW7       30.36S WCI  24
ST CHARLES     CLOUDY    31  24  75 NW7       30.37R WCI  24

$$
MOZ072>076-082>087-097>100-106>115-012300-
...SOUTH CENTRAL AND SOUTHEAST MISSOURI...

CITY           SKY/WX    TMP DP  RH WIND       PRES   REMARKS
CAPE GIRARDEAU CLOUDY    37  33  85 N5        30.34F
FARMINGTON     CLOUDY    34  28  80 NW7       30.36R WCI  28
POPLAR BLUFF   CLOUDY    38  31  76 NE6       30.32F
WEST PLAINS    CLOUDY    35  30  82 NW5       30.32S

$$



USA.gov is the U.S. government's official web portal to all federal, state and local government web resources and services.